#timestamp,LO_Frequency,Hit,StdDev 
1621949715.5,286046990.7,P
1621949735.4,286046990.9,P
1621949755.2,286046990.9,P
1621949775.0,286046992.8,Y
1621949775.9,286046992.8,P
1621949795.8,286046998.7,N
1621949815.6,286047001.2,N
1621949835.4,286046998.5,N
1621949855.3,286046998.1,N
1621949875.1,286047001.1,N
1621949895.9,286046999.4,N
1621949915.7,286046998.9,N
1621949935.5,286046999.6,N
1621949955.4,286046998.7,N
1621949975.2,286046999.6,N
1621949995.0,286046999.2,N
1621949995.9,286046999.2,N
1621950015.8,286046999.1,N
1621950035.6,286046999.5,N
1621950055.5,286046999.5,N
1621950075.3,286046999.1,N
1621950095.1,286046998.4,N
1621950115.9,286047000.7,N
1621950135.7,286047001.2,N
1621950155.5,286047000.5,N
1621950175.4,286046998.1,N
1621950195.2,286046998.6,N
1621950215.1,286047001.1,N
1621950216.0,286047001.1,N
1621950235.8,286047000.4,N
1621950255.6,286047000.2,N
1621950275.5,286047000.9,N
1621950295.3,286046998.6,N
1621950315.1,286046998.5,N
1621950335.9,286046999.9,N
1621950355.7,286046998.3,N
1621950375.6,286046998.8,N
1621950395.4,286047001.0,N
1621950415.2,286046998.2,N
1621950435.1,286046998.3,N
1621950436.0,286046998.3,N
1621950455.8,286047000.7,N
1621950475.6,286047000.1,N
1621950495.5,286047002.7,N
1621950515.3,286047000.0,N
1621950535.2,286047000.4,N
1621950555.9,286047000.3,N
1621950575.7,286047000.2,N
1621950595.6,286047000.1,N
1621950615.4,286047000.9,N
1621950635.2,286047002.4,N
1621950655.1,286047000.5,N
1621950656.0,286047000.5,N
1621950675.8,286047002.4,N
1621950695.7,286046999.9,N
1621950715.5,286047002.1,N
1621950735.3,286047002.0,N
1621950755.2,286047002.2,N
1621950775.0,286047000.2,N
1621950775.9,286047000.2,N
1621950795.8,286047000.7,N
1621950815.6,286047000.8,N
1621950835.4,286047002.5,N
1621950855.3,286047002.1,N
1621950875.1,286047002.2,N
1621950895.8,286047000.2,N
1621950915.7,286047001.5,N
1621950935.5,286047002.4,N
1621950955.4,286047001.6,N
1621950975.2,286047002.1,N
1621950995.0,286047004.3,Y
1621950995.9,286047004.3,P
1621951015.8,286047002.7,N
1621951035.6,286047002.3,N
1621951055.4,286047002.1,N
1621951075.3,286047002.1,N
1621951095.1,286047001.8,N
1621951115.9,286047002.1,N
1621951135.7,286047001.6,N
1621951155.5,286047001.4,N
1621951175.4,286047004.4,Y
1621951195.2,286046999.8,P
